Richmond, KY

4:51 PM EST on December 11, 2017 (GMT -0500)
Richmond

Weather History for KI39 - October, 2012

Change the Weather History Date:

Monday, October 29, 2012

  Actual Average (KLOZ) Record (KLOZ)
Temperature  
Mean Temperature 40 °F -  
Max Temperature 44 °F 64 °F 81 °F (2016)
Min Temperature 37 °F 39 °F 19 °F (1976)
Degree Days  
Heating Degree Days 24    
Moisture  
Dew Point 31 °F    
Average Humidity 67    
Maximum Humidity 81    
Minimum Humidity 42    
Precipitation  
Precipitation 0.00 in - - ()
Sea Level Pressure  
Sea Level Pressure 29.94 in    
Wind  
Wind Speed 12 mph (NW)    
Max Wind Speed 26 mph    
Max Gust Speed 38 mph    
Visibility 10 miles    
Events      
Averages and records for this station are not official NWS values.
T = Trace of Precipitation, MM = Missing Value Source: NWS Daily Summary

Daily Weather History Graph

Daily Weather History Graph

Search for Another Location

Airport or City:

Trip Planner

Search our weather history database for the weather conditions in past years. The results will help you decide how hot, cold, wet, or windy it might be!

Date:

Astronomy

Oct. 29, 2012 Rise Set
Actual Time 7:59 AM EDT 6:41 PM EDT
Civil Twilight 7:32 AM EDT 7:08 PM EDT
Nautical Twilight 7:01 AM EDT 7:39 PM EDT
Astronomical Twilight 6:31 AM EDT 8:09 PM EDT
Moon 6:34 PM EDT (10/29) 7:48 AM EDT (10/29)
Length of Visible Light 11h 35m
Length of Day
10h 41m
Full, 100% of the Moon is Illuminated
Oct 29
Full
Oct 29
Full
Nov 6
Last Quarter
Nov 13
New
Nov 20
First Quarter

Hourly Weather History & Observations

Time (EDT) Temp. Windchill Dew Point Humidity Pressure Visibility Wind Dir Wind Speed Gust Speed Precip Events Conditions
12:15 AM 42.8 °F 40.1 °F 37.4 °F 81% 30.01 in 10.0 mi NNW 4.6 mph - N/A   Overcast
12:35 AM 42.8 °F 37.5 °F 35.6 °F 76% 30.01 in 10.0 mi NNW 9.2 mph - N/A   Overcast
1:15 AM 42.8 °F 37.5 °F 32.0 °F 66% 30.01 in 10.0 mi NNW 9.2 mph - N/A   Overcast
1:35 AM 42.8 °F 37.5 °F 32.0 °F 66% 30.00 in 10.0 mi NNW 9.2 mph 17.3 mph N/A   Overcast
1:55 AM 42.8 °F 38.0 °F 32.0 °F 66% 30.00 in 10.0 mi NNW 8.1 mph - N/A   Overcast
2:35 AM 42.8 °F 36.6 °F 32.0 °F 66% 29.99 in 10.0 mi NNW 11.5 mph - N/A   Overcast
2:55 AM 42.8 °F 37.5 °F 32.0 °F 66% 29.99 in 10.0 mi NNW 9.2 mph - N/A   Overcast
3:15 AM 41.0 °F 35.2 °F 32.0 °F 70% 29.99 in 10.0 mi NNW 9.2 mph - N/A   Overcast
3:35 AM 41.0 °F 35.8 °F 32.0 °F 70% 29.99 in 10.0 mi NNW 8.1 mph - N/A   Overcast
3:55 AM 41.0 °F 35.8 °F 32.0 °F 70% 29.98 in 10.0 mi NNW 8.1 mph - N/A   Overcast
4:15 AM 41.0 °F 37.1 °F 32.0 °F 70% 29.98 in 10.0 mi NW 5.8 mph - N/A   Overcast
4:35 AM 41.0 °F 36.4 °F 32.0 °F 70% 29.98 in 10.0 mi NW 6.9 mph - N/A   Overcast
5:15 AM 41.0 °F 34.3 °F 32.0 °F 70% 29.98 in 10.0 mi NW 11.5 mph - N/A   Overcast
5:35 AM 39.2 °F 32.0 °F 32.0 °F 75% 29.98 in 10.0 mi NW 11.5 mph - N/A   Overcast
5:55 AM 39.2 °F 32.5 °F 32.0 °F 75% 29.98 in 10.0 mi NW 10.4 mph - N/A   Overcast
6:15 AM 39.2 °F 32.0 °F 32.0 °F 75% 29.98 in 10.0 mi NNW 11.5 mph - N/A   Overcast
6:35 AM 39.2 °F 32.5 °F 30.2 °F 70% 29.98 in 10.0 mi NW 10.4 mph 16.1 mph N/A   Overcast
6:55 AM 39.2 °F 32.5 °F 30.2 °F 70% 29.98 in 10.0 mi NW 10.4 mph - N/A   Overcast
7:15 AM 37.4 °F 29.3 °F 30.2 °F 75% 29.98 in 10.0 mi NW 12.7 mph - N/A   Overcast
7:35 AM 37.4 °F 29.3 °F 30.2 °F 75% 29.98 in 10.0 mi NNW 12.7 mph 17.3 mph N/A   Overcast
8:15 AM 37.4 °F 29.8 °F 30.2 °F 75% 29.99 in 10.0 mi NW 11.5 mph 19.6 mph N/A   Overcast
9:35 AM 37.4 °F 28.5 °F 30.2 °F 75% 29.99 in 10.0 mi NW 15.0 mph 18.4 mph N/A   Overcast
9:55 AM 37.4 °F 28.9 °F 30.2 °F 75% 29.98 in 10.0 mi NW 13.8 mph - N/A   Overcast
10:15 AM 37.4 °F 28.9 °F 30.2 °F 75% 29.98 in 10.0 mi NW 13.8 mph 18.4 mph N/A   Overcast
10:35 AM 37.4 °F 29.8 °F 30.2 °F 75% 29.98 in 10.0 mi NW 11.5 mph 18.4 mph N/A   Overcast
10:55 AM 39.2 °F 30.5 °F 30.2 °F 70% 29.98 in 10.0 mi NW 16.1 mph 19.6 mph N/A   Overcast
11:15 AM 39.2 °F 32.0 °F 30.2 °F 70% 29.97 in 10.0 mi NW 11.5 mph 19.6 mph N/A   Overcast
11:35 AM 39.2 °F 31.2 °F 32.0 °F 75% 29.98 in 10.0 mi NW 13.8 mph - N/A   Overcast
11:55 AM 41.0 °F 33.1 °F 32.0 °F 70% 29.97 in 10.0 mi NW 15.0 mph 18.4 mph N/A   Overcast
12:15 PM 41.0 °F 33.1 °F 32.0 °F 70% 29.97 in 10.0 mi NW 15.0 mph 23.0 mph N/A   Overcast
12:35 PM 41.0 °F 33.9 °F 32.0 °F 70% 29.96 in 10.0 mi NW 12.7 mph 17.3 mph N/A   Overcast
12:55 PM 41.0 °F 33.5 °F 32.0 °F 70% 29.96 in 10.0 mi NW 13.8 mph 20.7 mph N/A   Overcast
1:15 PM 41.0 °F 33.5 °F 32.0 °F 70% 29.95 in 10.0 mi NNW 13.8 mph 23.0 mph N/A   Overcast
1:35 PM 41.0 °F 32.5 °F 32.0 °F 70% 29.94 in 10.0 mi NW 17.3 mph - N/A   Overcast
1:55 PM 41.0 °F 33.1 °F 32.0 °F 70% 29.93 in 10.0 mi NW 15.0 mph 23.0 mph N/A   Overcast
2:15 PM 41.0 °F 32.5 °F 33.8 °F 76% 29.93 in 10.0 mi NW 17.3 mph 23.0 mph N/A   Overcast
2:55 PM 42.8 °F 35.4 °F 33.8 °F 70% 29.91 in 10.0 mi NW 15.0 mph 26.5 mph N/A   Overcast
3:15 PM 42.8 °F 34.8 °F 33.8 °F 70% 29.90 in 10.0 mi NW 17.3 mph 25.3 mph N/A   Overcast
3:35 PM 42.8 °F 34.0 °F 33.8 °F 70% 29.90 in 10.0 mi NW 20.7 mph 26.5 mph N/A   Overcast
3:55 PM 42.8 °F 35.4 °F 33.8 °F 70% 29.89 in 10.0 mi NW 15.0 mph 24.2 mph N/A   Overcast
4:15 PM 42.8 °F 34.8 °F 33.8 °F 70% 29.89 in 10.0 mi NW 17.3 mph - N/A   Overcast
4:35 PM 42.8 °F 35.4 °F 32.0 °F 66% 29.88 in 10.0 mi NW 15.0 mph 25.3 mph N/A   Overcast
4:55 PM 44.6 °F 37.4 °F 32.0 °F 61% 29.88 in 10.0 mi NW 16.1 mph 29.9 mph N/A   Overcast
5:15 PM 44.6 °F 36.9 °F 32.0 °F 61% 29.86 in 10.0 mi NW 18.4 mph 25.3 mph N/A   Overcast
5:35 PM 42.8 °F 34.0 °F 32.0 °F 66% 29.86 in 10.0 mi NNW 20.7 mph 26.5 mph N/A   Overcast
5:55 PM 42.8 °F 34.8 °F 32.0 °F 66% 29.86 in 10.0 mi NW 17.3 mph 28.8 mph N/A   Overcast
6:15 PM 42.8 °F 33.8 °F 30.2 °F 61% 29.86 in 10.0 mi NW 21.9 mph 27.6 mph N/A   Overcast
6:35 PM 42.8 °F 34.8 °F 28.4 °F 57% 29.85 in 10.0 mi NNW 17.3 mph 31.1 mph N/A   Overcast
6:55 PM 42.8 °F 34.3 °F 26.6 °F 53% 29.86 in 10.0 mi NNW 19.6 mph 36.8 mph N/A   Overcast
7:15 PM 42.8 °F 32.9 °F 24.8 °F 49% 29.85 in 10.0 mi NW 26.5 mph 33.4 mph N/A   Overcast
7:35 PM 42.8 °F 34.0 °F 24.8 °F 49% 29.84 in 10.0 mi NNW 20.7 mph 29.9 mph N/A   Overcast
7:55 PM 42.8 °F 35.4 °F 23.0 °F 46% 29.84 in 10.0 mi NW 15.0 mph 26.5 mph N/A   Overcast
8:15 PM 42.8 °F 33.3 °F 21.2 °F 42% 29.83 in 10.0 mi NNW 24.2 mph 38.0 mph N/A   Overcast
8:35 PM 42.8 °F 34.0 °F 21.2 °F 42% 29.83 in 10.0 mi NNW 20.7 mph 28.8 mph N/A   Overcast
11:55 PM 42.8 °F 34.0 °F 24.8 °F 49% 29.76 in 10.0 mi NW 20.7 mph 31.1 mph N/A   Overcast